Regional Weather Roundup
Issued by NWS

Home | Current Version | Previous Version | Graphics & Text | Print | Product List | Glossary On
Versions: 1 2 3 4 5 6 7 8 9 10 11 12 13 14 15 16 17 18 19 20 21 22 23 24 25 26 27 28 29 30 31 32 33 34 35 36 37 38 39 40 41 42 43 44 45 46 47 48 49 50
000
ASUS43 KBIS 311210
RWRND

NORTH DAKOTA REGIONAL WEATHER ROUNDUP
NATIONAL WEATHER SERVICE BISMARCK ND
700 AM CDT THU JUL 31 2014

NOTE: "FAIR" INDICATES FEW OR NO CLOUDS BELOW 12,000 FEET WITH NO
SIGNIFICANT WEATHER AND/OR OBSTRUCTIONS TO VISIBILITY.


NDZ001>003-009>011-017-311300-
NORTHWEST NORTH DAKOTA

CITY           SKY/WX    TMP DP  RH WIND       PRES   REMARKS
WILLISTON      CLOUDY    62  60  93 CALM      30.09R
6HR MIN TEMP:  62; 6HR MAX TEMP:  69; 6HR PCP:  0.08;

MINOT          PTCLDY    57  53  86 SW9       30.08S
MINOT AFB      PTCLDY    53  53  99 W7        30.08S
$$

NDZ018>021-031>035-040>046-311300-
SOUTHWEST NORTH DAKOTA

CITY           SKY/WX    TMP DP  RH WIND       PRES   REMARKS
BISMARCK       PTCLDY    55  53  93 CALM      30.10S
6HR MIN TEMP:  55; 6HR MAX TEMP:  64;

DICKINSON      MOCLDY    58  54  86 NE6       30.13R
GARRISON         N/A     56  55  97 CALM      30.10R
6HR MIN TEMP:  55; 6HR MAX TEMP:  59;

HETTINGER ARPT PTCLDY    53  51  93 MISG      30.15S FOG
$$

NDZ004>008-012>016-024-026-027-054-311300-
NORTHEAST NORTH DAKOTA

CITY           SKY/WX    TMP DP  RH WIND       PRES   REMARKS
GRAND FORKS    PTCLDY    59  57  93 W7        30.03S
GRND FRKS AFB  PTCLDY    61  60  99 NW7       30.05R
DEVILS LAKE    CLEAR     61  54  77 CALM      30.07S
$$

NDZ022-023-025-028>030-036>039-047>053-311300-
SOUTHEAST NORTH DAKOTA

CITY           SKY/WX    TMP DP  RH WIND       PRES   REMARKS
FARGO          CLEAR     56  53  90 CALM      30.04S
6HR MIN TEMP:  55; 6HR MAX TEMP:  63;

JAMESTOWN      CLEAR     58  54  86 NW5       30.08S
$$




USA.gov is the U.S. government's official web portal to all federal, state and local government web resources and services.